Regional Weather Roundup
Issued by NWS

Home | Current Version | Previous Version | Graphics & Text | Print | Product List | Glossary Off
Versions: 1 2 3 4 5 6 7 8 9 10 11 12 13 14 15 16 17 18 19 20 21 22 23 24 25 26 27 28 29 30 31 32 33 34 35 36 37 38 39 40 41 42 43 44 45 46 47 48 49 50

000
ASUS43 KMPX 122301
RWRMN
WEATHER ROUNDUP FOR MINNESOTA
NATIONAL WEATHER SERVICE TWIN CITIES/CHANHASSEN MN
500 PM CST TUE DEC 12 2017


NOTE: "FAIR" INDICATES FEW OR NO CLOUDS BELOW 12,000 FEET WITH NO
SIGNIFICANT WEATHER AND/OR OBSTRUCTIONS TO VISIBILITY. N/A MEANS
CURRENT SKY AND/OR WEATHER CONDITIONS ARE NOT AVAILABLE.

MNZ060>063-068>070-130000-
   Twin Cities Metro

CITY           SKY/WX    TMP DP  RH WIND       PRES   REMARKS
TWIN CITIES    CLOUDY    21  14  74 SE9       29.92F WCI  11
ST PAUL        CLOUDY    19  13  77 SE9       29.94F WCI   8
CRYSTAL        CLOUDY    20  11  68 SE9       29.90F WCI   9
BLAINE         CLOUDY    19  14  79 SE9       29.90F WCI   9
LAKEVILLE      CLOUDY    21  18  86 S6        29.92F WCI  14
EDEN PRAIRIE   CLOUDY    22  15  75 SE7       29.90F WCI  13
SOUTH ST PAUL  CLOUDY    20  13  73 SE5       29.93F WCI  14
LAKE ELMO      CLOUDY    18  12  79 S8        29.94F WCI   7
$$
MNZ001>005-007-008-013>017-022>024-027-028-130000-
   Northwest Minnesota

CITY           SKY/WX    TMP DP  RH WIND       PRES   REMARKS
BEMIDJI        CLOUDY    17  14  88 SE9       29.74F WCI   6
HALLOCK        CLEAR     27  25  93 SE12      29.63F WCI  16
ROSEAU         CLOUDY    19  16  86 SE8       29.68F WCI   9
WARROAD        CLOUDY    16  12  86 SE9       29.70F WCI   4
CROOKSTON      PTCLDY    28  27  93 S13       29.68F WCI  18
FOSSTON        CLOUDY    27  25  93 S12       29.70F WCI  16
DETROIT LAKES  PTCLDY    30  28  93 S6        29.73F WCI  24
MOORHEAD       CLEAR     36  28  75 CALM      29.72F
PARK RAPIDS    CLOUDY    23  19  85 SE9       29.74F WCI  13
MAHNOMEN       MOCLDY    29  26  89 S8        29.71F WCI  21
$$
MNZ006-009>011-018-025>026-130000-
   North Central Minnesota

CITY           SKY/WX    TMP DP  RH WIND       PRES   REMARKS
BAUDETTE       CLOUDY    16  12  84 SE10      29.73F WCI   4
FLAG ISLAND    CLOUDY    14  10  85 SE9       29.72F WCI   2
INTL FALLS     LGT SNOW  12   7  80 SE9       29.79F WCI   0
WASKISH        CLOUDY    16  12  86 SE8       29.74F WCI   5
LONGVILLE      CLOUDY    16  10  79 SE7       29.80S WCI   6
GRAND RAPIDS   CLOUDY    13   9  84 S7        29.82F WCI   3
CRANE LAKE     LGT SNOW   9   5  85 CALM      29.85F
ORR            FLURRIES  10   5  79 SE5       29.78F WCI   2
COOK           FLURRIES  10   7  85 E3        29.81F
WALKER         CLOUDY    16  12  84 SE7       29.76F WCI   6
$$
MNZ012-019>021-037-130000-
   Northeast Minnesota

CITY           SKY/WX    TMP DP  RH WIND       PRES   REMARKS
DULUTH         LGT SNOW  10   7  87 S7        29.84F FOG     WCI  -1
ELY            FLURRIES   9   0  66 SE3       29.82F
HIBBING        FLURRIES  10   7  87 SE6       29.82F WCI   0
EVELETH        FLURRIES  10   4  78 SE5       29.83F WCI   1
DULUTH HARBOR  LGT SNOW  16  10  79 CALM      29.93F
TWO HARBORS    LGT SNOW  16   9  73 CALM      29.86F
GRAND MARAIS     N/A     13  -1  54 N3        29.93F
G MARAIS ARPRT CLOUDY     5  -8  56 CALM      29.83F
$$
MNZ029>031-032-039>041-046>048-054>057-064-130000-
   West Central Minnesota

CITY           SKY/WX    TMP DP  RH WIND       PRES   REMARKS
FERGUS FALLS   CLEAR     34  28  80 SW5       29.78F WCI  30
WHEATON        CLEAR     37  27  65 S3        29.79F
MORRIS         CLEAR     36  27  69 SW8       29.78F
ALEXANDRIA     CLOUDY    34  29  82 S8        29.77F WCI  27
ELBOW LAKE     FAIR      33  28  85 SW7       29.77F WCI  26
WADENA         CLOUDY    28  25  86 S5        29.75F WCI  23
GLENWOOD       CLEAR     34  30  86 S9        29.79F WCI  26
APPLETON         N/A     37  28  70 SW8       29.81F
BENSON         CLOUDY    36  28  75 W8        29.82F
ORTONVILLE     CLEAR     37  28  70 S3        29.79F
MADISON        CLEAR     39  30  70 SW12      29.82F
WILLMAR        CLOUDY    37  30  75 SW7       29.84F
$$
MNZ033>034-036-042>043-049>051-058-059-130000-
   Central Minnesota

CITY           SKY/WX    TMP DP  RH WIND       PRES   REMARKS
ST CLOUD       CLOUDY    20  15  81 SE8       29.85F WCI  10
SAUK CENTRE    CLOUDY    29  25  85 SE6       29.80F WCI  23
PAYNESVILLE    CLOUDY    30  27  88 SE7       29.82F WCI  23
AITKIN         CLOUDY    12   9  85 S6        29.82F WCI   3
PINE RIVER     CLOUDY    16  12  86 SE7       29.83F WCI   6
BRAINERD       CLOUDY    18  13  80 S7        29.82F WCI   9
STAPLES        CLOUDY    21  18  86 SE6       29.77F WCI  14
LONG PRAIRIE   CLOUDY    27  23  86 E6        29.81F WCI  20
LITTLE FALLS   MOCLDY    19  12  73 SE6       29.83F WCI  11
LITCHFIELD     CLOUDY    28  27  93 SE5       29.84F WCI  23
BUFFALO        PTCLDY    21  15  78 SE5       29.89F WCI  14
MAPLE LAKE     PTCLDY    23  19  85 SE5       29.87F WCI  17
HUTCHINSON     PTCLDY    29  26  86 SE5       29.86F WCI  24
$$
MNZ037-044-045-052-053-130000-
   East Central Minnesota

CITY           SKY/WX    TMP DP  RH WIND       PRES   REMARKS
PRINCETON      CLOUDY    19  14  79 SE7       29.88F WCI  10
MORA           CLOUDY    14  10  85 S6        29.90F WCI   5
CAMBRIDGE      CLOUDY    18  10  73 SE3       29.90F
RUSH CITY      CLOUDY    15  10  81 SE6       29.91F WCI   6
MOOSE LAKE     LGT SNOW  14  10  85 S3        29.86F
HINCKLEY       CLOUDY    16  12  86 S7        29.89F WCI   6
CLOQUET        LGT SNOW  12   9  85 S3        29.85F
MCGREGOR       CLOUDY    18  12  79 S8        29.84F WCI   7
$$
MNZ071>073-080-081-089-090-097-098-130000-
   Southwest Minnesota

CITY           SKY/WX    TMP DP  RH WIND       PRES   REMARKS
MONTEVIDEO     PTCLDY    37  28  70 W5        29.83F
GRANITE FALLS  PTCLDY    40  29  65 SW10      29.86F
CANBY          CLEAR     40  31  70 SW12      29.83F
MARSHALL       PTCLDY    38  28  67 SW15      29.84F
REDWOOD FALLS  CLEAR     36  27  69 SW12      29.85F
OLIVIA         PTCLDY    36  30  80 SW9       29.84F
PIPESTONE      CLEAR     34  28  80 SW12      29.86F WCI  25
WINDOM         CLEAR     34  19  55 S10       29.88F WCI  26
WORTHINGTON    CLEAR     34  27  75 SW14      29.89F WCI  25
JACKSON        CLEAR     32  27  80 MISG      29.91F
SLAYTON        CLEAR     33  28  82 SW12      29.89F WCI  25
$$
MNZ065>067-074>077-082>085-091>093-130000-
   South Central Minnesota

CITY           SKY/WX    TMP DP  RH WIND       PRES   REMARKS
MANKATO        MOCLDY    28  23  81 S7        29.89F WCI  21
NEW ULM        PTCLDY    34  27  75 S7        29.87F WCI  28
ST JAMES       CLOUDY    34  27  75 S7        29.89F WCI  28
FAIRMONT       MOCLDY    33  26  75 SW9       29.92F WCI  25
GLENCOE        CLOUDY    26  22  86 SE7       29.87F WCI  18
FARIBAULT      CLOUDY    25  19  80 SE7       29.91F WCI  17
OWATONNA       CLOUDY    25  19  80 S8        29.91F WCI  16
WASECA         CLEAR     27  21  80 S8        29.91F WCI  18
ALBERT LEA     CLOUDY    28  19  69 CALM      29.92F
$$
MNZ078>079-086>088-094>096-130000-
   Southeast Minnesota

CITY           SKY/WX    TMP DP  RH WIND       PRES   REMARKS
ROCHESTER      CLOUDY    22  17  81 S8        29.93F WCI  12
RED WING       CLOUDY    19   9  63 SE6       29.95F WCI  11
STANTON        CLOUDY    24  18  77 S6        29.91F WCI  17
DODGE CENTER   CLOUDY    21  18  86 S9        29.92F WCI  11
WINONA           N/A     21  10  63 CALM      30.00F
PRESTON        CLOUDY    21  13  71 S7        29.95F WCI  12
$$
ABBREVIATIONS USED IN REMARKS
   TC - TEMPERATURES IN CELSIUS
  WCI - WIND CHILL INDEX
   HX - HEAT INDEX
  VSB - VISIBILITY
$$




USA.gov is the U.S. government's official web portal to all federal, state and local government web resources and services.